K7OLI-13 Weather Reports


time (UTC)temp
C
wind
direction
speed
KPH
gust
KPH
rain 1hr
cm
rain 24hr
cm
rain mn
cm
humidity
%
barometer
mb
20260903222532 14 184 3.2 6.4 0.25 1.22 0.64 88
20260903221217 12 100 3.2 3.2 0.25 1.22 0.64 92
20260903220033 12 110 4.8 6.4 0.25 1.22 0.64 91
20260903215024 12 174 8.0 12.9 0.15 1.14 0.53 91
20260903214030 12 170 12.9 16.1 0.08 1.07 0.46 90
20260903213020 13 171 9.7 14.5 0.00 0.99 0.38 87
20260903212028 14 181 12.9 20.9 0.00 1.02 0.38 79
20260903211056 13 170 6.4 11.3 0.00 1.02 0.38 79
20260903210026 14 191 8.0 12.9 0.00 1.02 0.38 78
20260903205033 14 199 12.9 20.9 0.00 1.04 0.38 77
20260903204043 14 198 12.9 17.7 0.00 1.04 0.38 78
20260903203030 15 185 12.9 19.3 0.00 1.04 0.38 79
20260903202020 15 142 12.9 17.7 0.00 1.04 0.38 79
20260903201027 15 122 12.9 19.3 0.00 1.04 0.38 84
20260903200036 15 152 11.3 17.7 0.00 1.04 0.38 85
20260903195024 15 134 12.9 19.3 0.00 1.04 0.38 84
20260903194053 15 144 12.9 16.1 0.00 1.04 0.38 83
20260903193021 15 122 16.1 27.4 0.00 1.07 0.38 81
20260903192108 15 150 12.9 24.1 0.00 1.07 0.38 81
20260903191117 15 130 16.1 27.4 0.00 1.09 0.38 81
20260903190026 15 119 16.1 22.5 0.00 1.09 0.38 83
20260903185033 15 125 14.5 20.9 0.00 1.14 0.38 86
20260903184024 15 107 14.5 17.7 0.00 1.17 0.38 87
20260903183030 15 106 12.9 17.7 0.00 1.27 0.38 88
20260903182020 15 132 16.1 22.5 0.03 1.35 0.38 90
20260903181028 15 118 12.9 19.3 0.10 1.40 0.38 91
20260903180055 14 102 14.5 24.1 0.15 1.45 0.38 90
20260903175024 14 129 14.5 19.3 0.18 1.45 0.38 91
20260903174032 13 124 9.7 14.5 0.18 1.45 0.38 92
20260903173023 13 118 11.3 16.1 0.18 1.47 0.38 92
20260903172030 13 122 8.0 11.3 0.15 1.45 0.36 92
20260903171019 14 162 9.7 12.9 0.10 1.40 0.28 90
20260903170027 14 144 11.3 22.5 0.05 1.37 0.23 88
20260903165035 15 133 12.9 20.9 0.03 1.35 0.20 83
20260903164024 16 133 14.5 24.1 0.03 1.35 0.20 80
20260903163032 16 132 17.7 27.4 0.03 1.35 0.20 80
20260903162022 16 123 16.1 25.7 0.03 1.35 0.20 82
20260903161240 14 12.9 12.9 0.00 1.32 0.18 88
20260903160037 13 147 12.9 17.7 0.00 1.32 0.18 90
20260903155046 13 135 11.3 20.9 0.00 1.32 0.18 91
20260903154035 13 123 11.3 14.5 0.00 1.32 0.18 91
20260903153023 13 123 11.3 20.9 0.00 1.32 0.18 92
20260903152031 12 119 12.9 20.9 0.00 1.32 0.18 94
20260903151021 12 108 9.7 14.5 0.00 1.32 0.18 95
20260903150108 12 115 12.9 17.7 0.03 1.32 0.18 95
20260903145036 12 128 11.3 14.5 0.05 1.32 0.18 97
20260903144027 12 102 8.0 12.9 0.10 1.32 0.18 98
20260903143034 12 102 8.0 14.5 0.13 1.32 0.18 98
20260903142023 12 113 8.0 11.3 0.18 1.32 0.18 98
20260903141032 12 130 9.7 14.5 0.18 1.32 0.18 97
20260903140020 12 105 11.3 17.7 0.15 1.30 0.15 97
20260903135028 12 123 11.3 14.5 0.13 1.27 0.13 97
20260903134040 12 132 14.5 17.7 0.08 1.22 0.08 96
20260903133025 12 135 12.9 17.7 0.05 1.19 0.05 96
20260903132032 12 101 9.7 12.9 0.00 1.14 0.00 95
20260903131024 12 121 11.3 16.1 0.00 1.14 0.00 93
20260903130032 13 143 12.9 19.3 0.00 1.14 0.00 90
20260903125019 13 114 12.9 19.3 0.00 1.14 0.00 91
20260903124027 13 133 11.3 17.7 0.00 1.14 0.00 91
20260903123035 13 127 11.3 16.1 0.00 1.14 0.00 91
20260903122024 12 118 11.3 14.5 0.00 1.14 0.00 92
20260903121110 12 121 12.9 17.7 0.00 1.14 0.00 92
20260903120021 12 122 9.7 17.7 0.00 1.14 0.00 93
20260903115029 12 97 9.7 12.9 0.00 1.14 0.00 93
20260903114040 12 116 8.0 11.3 0.00 1.14 0.00 93
20260903113046 12 111 8.0 14.5 0.00 1.14 0.00 93
20260903112034 12 113 11.3 16.1 0.00 1.14 0.00 93
20260903111024 12 109 11.3 14.5 0.00 1.14 0.00 93
20260903110032 12 113 9.7 19.3 0.00 1.14 0.00 93
20260903105021 12 102 12.9 16.1 0.00 1.14 0.00 93
20260903104031 12 126 9.7 16.1 0.00 1.14 0.00 94
20260903103036 12 117 9.7 14.5 0.00 1.14 0.00 94
20260903102025 12 115 8.0 14.5 0.00 1.14 0.00 94
20260903101033 12 119 11.3 16.1 0.00 1.14 0.00 94
20260903100025 12 118 11.3 16.1 0.00 1.14 0.00 94
20260903095032 12 110 11.3 14.5 0.00 1.14 0.00 94
20260903094020 13 117 9.7 17.7 0.00 1.14 0.00 93
20260903093028 13 126 11.3 16.1 0.00 1.14 0.00 93
20260903092036 13 115 11.3 17.7 0.00 1.14 0.00 93
20260903091024 13 138 14.5 22.5 0.00 1.14 0.00 93
20260903090050 13 122 16.1 20.9 0.00 1.14 0.00 93
20260903085024 13 129 12.9 17.7 0.00 1.14 0.00 93
20260903084109 13 132 11.3 16.1 0.00 1.14 0.00 93
20260903083039 13 130 14.5 19.3 0.00 1.14 0.00 93
20260903082047 13 127 12.9 16.1 0.00 1.14 0.00 93
20260903081035 13 127 12.9 17.7 0.00 1.14 0.00 93
20260903080024 13 141 16.1 24.1 0.00 1.14 0.00 94
20260903075032 13 120 14.5 19.3 0.00 1.14 0.00 94
20260903074044 13 120 11.3 17.7 0.00 1.14 0.00 94
20260903073029 13 146 12.9 17.7 0.00 1.14 0.00 95
20260903072036 13 145 14.5 24.1 0.00 1.14 0.00 95
20260903071045 13 125 12.9 17.7 0.00 1.14 0.00 95
20260903070034 13 106 11.3 16.1 0.03 1.14 0.00 96
20260903065045 13 133 11.3 14.5 0.03 1.14 1.14 96
20260903064031 13 145 8.0 14.5 0.03 1.14 1.14 96
20260903063021 13 140 11.3 14.5 0.03 1.14 1.14 96
20260903062028 13 125 11.3 16.1 0.05 1.14 1.14 96
20260903061036 13 124 9.7 12.9 0.05 1.14 1.14 96
20260903060025 13 119 8.0 14.5 0.03 1.12 1.12 97
20260903055033 13 112 8.0 11.3 0.03 1.12 1.12 97
20260903054022 13 135 8.0 11.3 0.03 1.12 1.12 96
20260903053030 13 140 6.4 11.3 0.03 1.12 1.12 96
20260903052019 13 159 8.0 11.3 0.00 1.09 1.09 95
20260903051048 13 190 9.7 16.1 0.00 1.09 1.09 95
20260903050036 13 139 9.7 12.9 0.00 1.09 1.09 96
20260903045025 13 112 8.0 11.3 0.00 1.09 1.09 97
20260903044032 13 114 8.0 11.3 0.00 1.09 1.09 97
20260903043022 13 100 8.0 9.7 0.00 1.09 1.09 96
20260903042030 13 119 8.0 11.3 0.00 1.09 1.09 96
20260903041019 13 108 8.0 14.5 0.00 1.09 1.09 95
20260903040027 13 130 8.0 11.3 0.00 1.09 1.09 94
20260903035034 13 127 14.5 20.9 0.00 1.09 1.09 93
20260903034044 13 130 9.7 14.5 0.00 1.09 1.09 93
20260903033032 13 130 8.0 11.3 0.00 1.09 1.09 93
20260903032021 14 133 8.0 11.3 0.00 1.09 1.09 93
20260903031029 14 112 4.8 8.0 0.00 1.09 1.09 93
20260903030056 -17 113 4.8 4.8 0.00 1.09 1.09
20260903025103 -17 108 4.8 6.4 0.00 1.09 1.09
20260903024150 15 95 8.0 9.7 0.00 1.09 1.09 92
20260903023233 15 113 8.0 9.7 0.00 1.09 1.09 93
20260903022032 15 126 6.4 9.7 0.00 1.09 1.09 93
20260903021041 15 159 6.4 8.0 0.00 1.09 1.09 91
20260903020029 15 155 6.4 8.0 0.00 1.09 1.09 92
20260903015056 15 158 4.8 9.7 0.03 1.09 1.09 92
20260903014026 15 149 6.4 8.0 0.05 1.09 1.09 92
20260903013034 15 153 6.4 9.7 0.05 1.09 1.09 93
20260903012024 15 165 8.0 12.9 0.05 1.09 1.09 94
20260903011032 15 147 8.0 14.5 0.05 1.09 1.09 94
20260903010020 15 170 8.0 11.3 0.05 1.09 1.09 93
20260903005029 15 152 9.7 16.1 0.03 1.07 1.07 92
20260903004036 15 183 9.7 14.5 0.00 1.04 1.04 93
20260903003026 15 165 6.4 11.3 0.00 1.04 1.04 94
20260903002034 16 163 6.4 9.7 0.00 1.04 1.04 94
20260903001042 15 168 8.0 12.9 0.05 1.04 1.04 93
20260903000052 15 177 8.0 9.7 0.30 1.04 1.04 93
20260902235020 15 171 9.7 16.1 0.38 1.04 1.04 95
20260902234029 15 166 6.4 8.0 0.43 1.04 1.04 96
20260902233054 15 177 6.4 9.7 0.48 1.04 1.04 98
20260902232046 15 168 11.3 17.7 0.48 1.04 1.04 98
20260902231033 15 179 14.5 20.9 0.43 0.99 0.99 97
20260902230024 15 177 9.7 14.5 0.18 0.74 0.74 97
20260902225032 15 147 12.9 16.1 0.13 0.66 0.66 96
20260902224019 15 149 16.1 24.1 0.08 0.61 0.61 96
20260902223027 15 153 14.5 24.1 0.03 0.56 0.56 95